Погода в Аксенове

Россия / Псковская область     56°49′50″N   29°30′57″E
темп.,
°C
ветер,
м/с
пор.,
м/с
влажн.,
%
обл.,
%
осадки,
мм/ч
давл.,
гПа
погр.,
м
16 июня, ср
ср1600:00+12сз22945 0.0 101427
03:00+9сз26865 0.0 1016108
06:00+9сз27845 0.0 1017199
09:00+15ссв3458100 0.0 1018657
12:00+19ссв234547 0.0 10181490
15:00+21ссз3334100 0.0 10191932
18:00+20с2239100 0.0 10191694
21:00+14сз227219 0.0 102023
17 июня, чт
чт1700:00+11сз006619 0.0 102210
03:00+11зюз11675 0.0 102311
06:00+12з11702 0.0 102416
09:00+19юз11480 0.0 1024486
12:00+23юз11380 0.0 10251537
15:00+24юз223431 0.0 10241840
18:00+24з1148100 0.0 10241599
21:00+18всв11755 0.0 102511
18 июня, пт
пт1800:00+15ююв22775 0.0 102629
03:00+13ю22805 0.0 102633
06:00+15ююз25805 0.0 102696
09:00+21ююз365763 0.0 1026561
12:00+25ююз454221 0.0 10251602
15:00+27ююз45355 0.0 10241870
18:00+26юз36445 0.0 10231748
21:00+20юз23755 0.0 102448
19 июня, сб
сб1900:00+16ю37914 0.0 1025133
03:00+15ююз27960 0.0 1025131
06:00+16ююз38905 0.0 1026179
09:00+22юз35590 0.0 1026503
12:00+26ююз34454 0.0 10251534
15:00+28ююз34375 0.0 10241877
18:00+27ююз34430 0.0 10231882
21:00+21ю25755 0.0 1023104
20 июня, вс
вс2000:00+17ююз299034 0.0 1024189
03:00+15ююз2897100 0.0 1024161
06:00+17ю289199 0.0 1024209
09:00+22ююз356559 0.0 1023580
12:00+26ю444925 0.0 10221540
15:00+28ююз44385 0.0 10211993
18:00+27ююз33425 0.0 10202114
21:00+21юз22740 0.0 102024